FENTRESS NALF, VA

4:37 AM EDT on May 27, 2017 (GMT -0400)
Fentress Naval Air Landing Field

Weather History for KNFE - March, 2014

Change the Weather History Date:

Wednesday, March 5, 2014

  Actual Average (KNTU) Record (KNTU)
Temperature  
Mean Temperature 39 °F -  
Max Temperature 43 °F 53 °F 81 °F (2004)
Min Temperature 35 °F 36 °F 24 °F (2002)
Degree Days  
Heating Degree Days 26    
Moisture  
Dew Point 31 °F    
Average Humidity 75    
Maximum Humidity 85    
Minimum Humidity 65    
Precipitation  
Precipitation 0.00 in - - ()
Sea Level Pressure  
Sea Level Pressure 30.20 in    
Wind  
Wind Speed 10 mph (North)    
Max Wind Speed 14 mph    
Max Gust Speed -    
Visibility 6 miles    
Events Rain    
Averages and records for this station are not official NWS values.
T = Trace of Precipitation, MM = Missing Value Source: NWS Daily Summary

Daily Weather History Graph

Daily Weather History Graph

Search for Another Location

Airport or City:

Trip Planner

Search our weather history database for the weather conditions in past years. The results will help you decide how hot, cold, wet, or windy it might be!

Date:

Astronomy

Mar. 05, 2014 Rise Set
Actual Time 6:29 AM EST 6:02 PM EST
Civil Twilight 6:03 AM EST 6:28 PM EST
Nautical Twilight 5:34 AM EST 6:58 PM EST
Astronomical Twilight 5:04 AM EST 7:28 PM EST
Moon 9:01 AM EST (3/5) 11:00 PM EST (3/5)
Length of Visible Light 12h 24m
Length of Day
11h 33m
Waxing Crescent, 23% of the Moon is Illuminated
Mar 5
Waxing Crescent
Mar 8
First Quarter
Mar 16
Full
Mar 23
Last Quarter
Mar 30
New

Hourly Weather History & Observations

Time (EST) Temp. Windchill Dew Point Humidity Pressure Visibility Wind Dir Wind Speed Gust Speed Precip Events Conditions
12:28 AM 35.1 °F 27.4 °F 30.0 °F 82% 30.17 in 2.5 mi North 10.4 mph - 0.00 in Rain Light Rain
12:38 AM 35.1 °F 27.9 °F 30.0 °F 82% 30.17 in 3.0 mi North 9.2 mph - 0.00 in Rain Light Rain
12:56 AM 36.0 °F 29.0 °F 30.9 °F 82% 30.17 in 2.5 mi North 9.2 mph - 0.00 in   Haze
1:47 AM 36.0 °F 29.6 °F 30.9 °F 82% 30.17 in 3.0 mi NNW 8.1 mph - N/A   Haze
1:56 AM 36.0 °F 29.6 °F 30.9 °F 82% 30.18 in 3.0 mi NNW 8.1 mph - N/A   Haze
2:19 AM 36.0 °F 30.3 °F 30.9 °F 82% 30.16 in 2.5 mi NNW 6.9 mph - N/A   Haze
2:56 AM 36.0 °F 29.0 °F 30.9 °F 82% 30.17 in 2.5 mi NNW 9.2 mph - 0.00 in Rain Light Rain
3:18 AM 36.0 °F 28.5 °F 30.9 °F 82% 30.15 in 3.0 mi NNW 10.4 mph - 0.00 in   Haze
3:56 AM 36.0 °F 28.0 °F 30.9 °F 82% 30.15 in 3.0 mi North 11.5 mph - 0.00 in   Haze
4:56 AM 35.1 °F 28.6 °F 30.0 °F 82% 30.17 in 2.5 mi NNW 8.1 mph - N/A   Haze
5:56 AM 35.1 °F 26.9 °F 30.9 °F 85% 30.18 in 2.5 mi NNW 11.5 mph - N/A   Overcast
6:21 AM 36.0 °F 28.5 °F 30.9 °F 82% 30.18 in 3.0 mi NNW 10.4 mph - N/A   Haze
6:56 AM 36.0 °F 29.0 °F 30.9 °F 82% 30.21 in 2.0 mi NNW 9.2 mph - N/A   Haze
7:24 AM 36.0 °F 30.3 °F 30.9 °F 82% 30.20 in 3.0 mi NNW 6.9 mph - N/A   Haze
7:56 AM 36.0 °F 29.0 °F 30.9 °F 82% 30.22 in 6.0 mi North 9.2 mph - N/A   Haze
8:17 AM 37.0 °F 28.9 °F 30.0 °F 76% 30.21 in 7.0 mi North 12.7 mph - N/A   Overcast
8:56 AM 37.9 °F 30.9 °F 30.9 °F 76% 30.21 in 7.0 mi North 10.4 mph - N/A   Overcast
9:34 AM 39.9 °F 33.9 °F 33.1 °F 77% 30.19 in 6.0 mi NNW 9.2 mph - N/A   Haze
9:56 AM 41.0 °F 35.2 °F 33.1 °F 73% 30.20 in 8.0 mi North 9.2 mph - N/A   Overcast
10:13 AM 41.0 °F 34.7 °F 34.0 °F 76% 30.19 in 9.0 mi North 10.4 mph - N/A   Overcast
10:41 AM 39.9 °F 32.9 °F 33.1 °F 77% 30.19 in 4.0 mi North 11.5 mph - N/A   Haze
10:56 AM 41.0 °F 35.2 °F 34.0 °F 76% 30.20 in 4.0 mi North 9.2 mph - N/A   Haze
11:56 AM 41.0 °F 34.7 °F 34.0 °F 76% 30.19 in 3.0 mi North 10.4 mph - N/A   Haze
12:18 PM 39.9 °F 33.4 °F 34.0 °F 79% 30.18 in 2.5 mi NNW 10.4 mph - N/A   Haze
12:37 PM 39.9 °F 33.9 °F 34.0 °F 79% 30.18 in 1.8 mi North 9.2 mph - N/A   Haze
12:56 PM 39.9 °F 33.9 °F 34.0 °F 79% 30.18 in 3.0 mi NNW 9.2 mph - N/A   Haze
1:31 PM 42.1 °F 36.1 °F 34.0 °F 73% 30.17 in 10.0 mi North 10.4 mph - N/A   Overcast
1:56 PM 42.1 °F 34.9 °F 32.0 °F 67% 30.18 in 10.0 mi North 13.8 mph - N/A   Overcast
2:21 PM 42.1 °F 35.7 °F 32.0 °F 67% 30.18 in 10.0 mi North 11.5 mph - N/A   Overcast
2:31 PM 42.1 °F 35.7 °F 32.0 °F 67% 30.17 in 10.0 mi North 11.5 mph - N/A   Overcast
2:56 PM 43.0 °F 38.2 °F 32.0 °F 65% 30.18 in 10.0 mi North 8.1 mph - N/A   Overcast
3:56 PM 41.0 °F 34.7 °F 30.9 °F 67% 30.18 in 10.0 mi North 10.4 mph - N/A   Mostly Cloudy
4:56 PM 39.9 °F 32.5 °F 30.0 °F 68% 30.18 in 10.0 mi North 12.7 mph - N/A   Mostly Cloudy
5:47 PM 39.9 °F 33.9 °F 30.0 °F 68% 30.20 in 10.0 mi North 9.2 mph - N/A   Mostly Cloudy
5:56 PM 39.9 °F 34.5 °F 30.0 °F 68% 30.21 in 10.0 mi North 8.1 mph - N/A   Mostly Cloudy
6:56 PM 39.9 °F 34.5 °F 30.0 °F 68% 30.25 in 10.0 mi North 8.1 mph - N/A   Overcast
7:56 PM 41.0 °F 34.7 °F 30.0 °F 65% 30.26 in 10.0 mi North 10.4 mph - N/A   Overcast
8:56 PM 37.9 °F 30.9 °F 27.0 °F 65% 30.25 in 10.0 mi North 10.4 mph - N/A   Clear
9:56 PM 37.0 °F 31.6 °F 26.1 °F 65% 30.29 in 10.0 mi North 6.9 mph - N/A   Clear
10:56 PM 37.0 °F 31.0 °F 27.0 °F 67% 30.31 in 10.0 mi NNE 8.1 mph - N/A   Clear
11:56 PM 37.0 °F 29.8 °F 26.1 °F 65% 30.30 in 10.0 mi NNE 10.4 mph - N/A   Clear